Madison, MN

3:06 PM CDT on September 25, 2017 (GMT -0500)
Madison-Lac Qui Parle County

Weather History for KDXX - March, 2014

Change the Weather History Date:

Sunday, March 30, 2014

  Actual Average (KAQP) Record (KAQP)
Temperature  
Mean Temperature 50 °F -  
Max Temperature 60 °F 43 °F 73 °F (2015)
Min Temperature 39 °F 25 °F 14 °F (2011)
Degree Days  
Heating Degree Days 16    
Moisture  
Dew Point 39 °F    
Average Humidity 66    
Maximum Humidity 87    
Minimum Humidity 48    
Precipitation  
Precipitation 0.00 in - - ()
Sea Level Pressure  
Sea Level Pressure 29.75 in    
Wind  
Wind Speed 9 mph (East)    
Max Wind Speed 17 mph    
Max Gust Speed 21 mph    
Visibility 10 miles    
Events      
Averages and records for this station are not official NWS values.
T = Trace of Precipitation, MM = Missing Value Source: NWS Daily Summary

Daily Weather History Graph

Daily Weather History Graph

Search for Another Location

Airport or City:

Trip Planner

Search our weather history database for the weather conditions in past years. The results will help you decide how hot, cold, wet, or windy it might be!

Date:

Astronomy

Mar. 30, 2014 Rise Set
Actual Time 7:09 AM CDT 7:50 PM CDT
Civil Twilight 6:39 AM CDT 8:19 PM CDT
Nautical Twilight 6:04 AM CDT 8:54 PM CDT
Astronomical Twilight 5:27 AM CDT 9:31 PM CDT
Moon 6:55 AM CDT (3/30) 8:05 PM CDT (3/30)
Length of Visible Light 13h 40m
Length of Day
12h 40m
Waning Crescent, 0% of the Moon is Illuminated
Mar 30
Waning Crescent
Mar 30
New
Apr 7
First Quarter
Apr 15
Full
Apr 22
Last Quarter

Hourly Weather History & Observations

Time (CDT) Temp. Windchill Dew Point Humidity Pressure Visibility Wind Dir Wind Speed Gust Speed Precip Events Conditions
12:14 AM 41.0 °F 32.5 °F 33.8 °F 76% 29.83 in 10.0 mi SSE 17.3 mph - N/A   Clear
12:33 AM 39.2 °F 31.6 °F 33.8 °F 81% 29.82 in 10.0 mi SE 12.7 mph - N/A   Clear
12:54 AM 39.2 °F 31.2 °F 33.8 °F 81% 29.82 in 10.0 mi SSE 13.8 mph - N/A   Clear
1:13 AM 42.8 °F 36.2 °F 33.8 °F 70% 29.80 in 10.0 mi SSE 12.7 mph - N/A   Clear
1:34 AM 44.6 °F 37.8 °F 33.8 °F 66% 29.78 in 10.0 mi South 15.0 mph 18.4 mph N/A   Clear
1:54 AM 44.6 °F 37.2 °F 35.6 °F 71% 29.77 in 10.0 mi South 17.3 mph - N/A   Clear
2:13 AM 44.6 °F 37.4 °F 35.6 °F 71% 29.76 in 10.0 mi South 16.1 mph 20.7 mph N/A   Clear
2:34 AM 44.6 °F 38.4 °F 33.8 °F 66% 29.76 in 10.0 mi South 12.7 mph 19.6 mph N/A   Clear
2:54 AM 44.6 °F 40.7 °F 33.8 °F 66% 29.77 in 10.0 mi South 6.9 mph - N/A   Clear
3:13 AM 44.6 °F 39.7 °F 33.8 °F 66% 29.76 in 10.0 mi South 9.2 mph - N/A   Clear
3:34 AM 46.4 °F 39.8 °F 33.8 °F 62% 29.75 in 10.0 mi SSW 16.1 mph 19.6 mph N/A   Clear
3:53 AM 46.4 °F 40.1 °F 33.8 °F 62% 29.74 in 10.0 mi SSW 15.0 mph - N/A   Clear
4:13 AM 44.6 °F 38.8 °F 35.6 °F 71% 29.73 in 10.0 mi SSW 11.5 mph - N/A   Clear
4:34 AM 44.6 °F 39.2 °F 35.6 °F 71% 29.72 in 10.0 mi South 10.4 mph - N/A   Clear
4:53 AM 46.4 °F 44.3 °F 33.8 °F 62% 29.73 in 10.0 mi SSW 4.6 mph - N/A   Clear
5:13 AM 46.4 °F 40.7 °F 33.8 °F 62% 29.73 in 10.0 mi SW 12.7 mph 18.4 mph N/A   Clear
5:34 AM 46.4 °F 44.3 °F 33.8 °F 62% 29.74 in 10.0 mi SW 4.6 mph - N/A   Clear
5:54 AM 46.4 °F - 33.8 °F 62% 29.76 in 10.0 mi Calm Calm - N/A   Clear
6:13 AM 44.6 °F 39.2 °F 33.8 °F 66% 29.75 in 10.0 mi SW 10.4 mph - N/A   Clear
6:34 AM 44.6 °F - 33.8 °F 66% 29.76 in 10.0 mi Calm Calm - N/A   Clear
6:53 AM 44.6 °F - 33.8 °F 66% 29.77 in 10.0 mi Calm Calm - N/A   Clear
7:14 AM 42.8 °F - 33.8 °F 70% 29.78 in 10.0 mi Calm Calm - N/A   Clear
7:34 AM 42.8 °F - 33.8 °F 70% 29.79 in 10.0 mi Calm Calm - N/A   Clear
7:53 AM 42.8 °F - 33.8 °F 70% 29.79 in 10.0 mi Calm Calm - N/A   Clear
8:14 AM 44.6 °F - 33.8 °F 66% 29.79 in 10.0 mi Calm Calm - N/A   Clear
8:34 AM 42.8 °F - 37.4 °F 81% 29.80 in 10.0 mi Calm Calm - N/A   Clear
8:53 AM 44.6 °F 43.1 °F 37.4 °F 76% 29.80 in 10.0 mi SW 3.5 mph - N/A   Clear
9:14 AM 48.2 °F - 37.4 °F 66% 29.80 in 10.0 mi Calm Calm - N/A   Clear
9:34 AM 50.0 °F - 37.4 °F 62% 29.78 in 10.0 mi Calm Calm - N/A   Clear
9:53 AM 50.0 °F - 37.4 °F 62% 29.78 in 10.0 mi SSW 3.5 mph - N/A   Clear
10:14 AM 51.8 °F - 37.4 °F 58% 29.78 in 10.0 mi SSW 4.6 mph - N/A   Clear
10:34 AM 51.8 °F - 39.2 °F 62% 29.78 in 10.0 mi South 4.6 mph - N/A   Clear
10:53 AM 53.6 °F - 39.2 °F 58% 29.79 in 10.0 mi Calm Calm - N/A   Clear
11:14 AM 55.4 °F - 39.2 °F 54% 29.79 in 10.0 mi Calm Calm - N/A   Clear
11:34 AM 55.4 °F - 39.2 °F 54% 29.79 in 10.0 mi North 3.5 mph - N/A   Clear
11:53 AM 55.4 °F - 41.0 °F 58% 29.79 in 10.0 mi Calm Calm - N/A   Clear
12:14 PM 57.2 °F - 41.0 °F 55% 29.80 in 10.0 mi North 4.6 mph - N/A   Clear
12:34 PM 57.2 °F - 42.8 °F 59% 29.80 in 10.0 mi North 3.5 mph - N/A   Clear
12:53 PM 57.2 °F - 41.0 °F 55% 29.79 in 10.0 mi NNE 4.6 mph - N/A   Clear
1:14 PM 57.2 °F - 41.0 °F 55% 29.79 in 10.0 mi NNE 5.8 mph - N/A   Clear
1:34 PM 57.2 °F - 41.0 °F 55% 29.78 in 10.0 mi ENE 5.8 mph - N/A   Clear
1:53 PM 57.2 °F - 39.2 °F 51% 29.78 in 10.0 mi ENE 5.8 mph - N/A   Clear
2:14 PM 59.0 °F - 41.0 °F 51% 29.78 in 10.0 mi East 4.6 mph - N/A   Clear
2:33 PM 57.2 °F - 39.2 °F 51% 29.77 in 10.0 mi East 6.9 mph - N/A   Clear
2:53 PM 59.0 °F - 42.8 °F 55% 29.76 in 10.0 mi East 5.8 mph - N/A   Clear
3:14 PM 60.8 °F - 41.0 °F 48% 29.76 in 10.0 mi East 9.2 mph - N/A   Clear
3:33 PM 60.8 °F - 42.8 °F 52% 29.75 in 10.0 mi East 8.1 mph - N/A   Clear
3:54 PM 60.8 °F - 44.6 °F 55% 29.74 in 10.0 mi East 9.2 mph - N/A   Clear
4:14 PM 60.8 °F - 44.6 °F 55% 29.74 in 10.0 mi East 10.4 mph - N/A   Clear
4:33 PM 60.8 °F - 44.6 °F 55% 29.75 in 10.0 mi East 5.8 mph - N/A   Clear
4:54 PM 60.8 °F - 44.6 °F 55% 29.74 in 10.0 mi East 6.9 mph - N/A   Clear
5:14 PM 60.8 °F - 44.6 °F 55% 29.73 in 10.0 mi ENE 5.8 mph - N/A   Clear
5:33 PM 59.0 °F - 44.6 °F 59% 29.73 in 10.0 mi ENE 5.8 mph - N/A   Clear
5:54 PM 60.8 °F - 46.4 °F 59% 29.73 in 10.0 mi ENE 8.1 mph - N/A   Clear
6:14 PM 60.8 °F - 46.4 °F 59% 29.72 in 10.0 mi ENE 9.2 mph - N/A   Clear
6:33 PM 57.2 °F - 46.4 °F 67% 29.72 in 10.0 mi ENE 8.1 mph - N/A   Clear
6:54 PM 57.2 °F - 46.4 °F 67% 29.72 in 10.0 mi ENE 6.9 mph - N/A   Clear
7:14 PM 55.4 °F - 46.4 °F 72% 29.72 in 10.0 mi ENE 5.8 mph - N/A   Clear
7:33 PM 53.6 °F - 46.4 °F 77% 29.72 in 10.0 mi ENE 8.1 mph - N/A   Clear
7:54 PM 51.8 °F - 44.6 °F 76% 29.72 in 10.0 mi NE 8.1 mph - N/A   Clear
8:14 PM 51.8 °F - 44.6 °F 76% 29.71 in 10.0 mi NE 8.1 mph - N/A   Clear
8:33 PM 48.2 °F - 44.6 °F 87% 29.72 in 7.0 mi NE 9.2 mph - N/A   Clear
8:54 PM 46.4 °F 41.9 °F 42.8 °F 87% 29.72 in 7.0 mi NE 9.2 mph - N/A   Clear
9:14 PM 48.2 °F - 42.8 °F 82% 29.72 in 7.0 mi NE 12.7 mph - N/A   Clear
9:33 PM 46.4 °F 41.1 °F 42.8 °F 87% 29.71 in 7.0 mi NE 11.5 mph - N/A   Clear
9:54 PM 46.4 °F 41.1 °F 42.8 °F 87% 29.71 in 5.0 mi NE 11.5 mph - N/A   Haze
10:14 PM 46.4 °F 41.9 °F 41.0 °F 81% 29.70 in 5.0 mi NE 9.2 mph - N/A   Haze
10:33 PM 46.4 °F 41.1 °F 41.0 °F 81% 29.70 in 7.0 mi NE 11.5 mph - N/A   Clear
10:54 PM 44.6 °F 39.2 °F 39.2 °F 81% 29.70 in 7.0 mi NE 10.4 mph - N/A   Clear
11:14 PM 44.6 °F 39.2 °F 39.2 °F 81% 29.68 in 5.0 mi NE 10.4 mph - N/A   Haze
11:33 PM 44.6 °F 38.8 °F 39.2 °F 81% 29.67 in 7.0 mi ENE 11.5 mph - N/A   Clear
11:54 PM 44.6 °F 38.8 °F 39.2 °F 81% 29.67 in 7.0 mi NE 11.5 mph - N/A   Clear